Time,TemperatureF,DewpointF,PressureIn,WindDirection,WindDirectionDegrees,WindSpeedMPH,WindSpeedGustMPH,Humidity,HourlyPrecipIn,Conditions,Clouds,dailyrainin,SoftwareType,DateUTC
2013-11-26 00:02:00,21.4,19.7,30.29,North,360,1.0,2.0,93,0.00,,,0.00,Weather View 32 v70,2013-11-26 06:02:00,
2013-11-26 00:07:00,21.7,20.0,30.29,North,360,1.0,2.0,93,0.00,,,0.00,Weather View 32 v70,2013-11-26 06:07:00,
2013-11-26 00:12:00,21.8,20.1,30.29,North,360,1.0,2.0,93,0.00,,,0.00,Weather View 32 v70,2013-11-26 06:12:00,
2013-11-26 00:17:00,21.9,20.2,30.29,North,360,0.0,2.0,93,0.00,,,0.00,Weather View 32 v70,2013-11-26 06:17:00,
2013-11-26 00:22:00,22.0,20.3,30.29,North,360,2.0,2.0,93,0.00,,,0.00,Weather View 32 v70,2013-11-26 06:22:00,
2013-11-26 00:27:00,22.1,20.4,30.29,North,360,1.0,2.0,93,0.00,,,0.00,Weather View 32 v70,2013-11-26 06:27:00,
2013-11-26 00:32:00,22.0,20.3,30.29,North,360,0.0,2.0,93,0.00,,,0.00,Weather View 32 v70,2013-11-26 06:32:00,
2013-11-26 00:38:00,21.8,19.8,30.29,North,360,0.0,2.0,92,0.00,,,0.00,Weather View 32 v70,2013-11-26 06:38:00,
2013-11-26 00:43:00,21.7,20.0,30.29,North,360,0.0,2.0,93,0.00,,,0.00,Weather View 32 v70,2013-11-26 06:43:00,
2013-11-26 00:48:00,21.6,19.9,30.29,North,360,0.0,2.0,93,0.00,,,0.00,Weather View 32 v70,2013-11-26 06:48:00,
2013-11-26 00:53:00,21.6,19.9,30.29,North,360,0.0,2.0,93,0.00,,,0.00,Weather View 32 v70,2013-11-26 06:53:00,
2013-11-26 00:58:00,21.6,19.9,30.28,North,360,0.0,2.0,93,0.00,,,0.00,Weather View 32 v70,2013-11-26 06:58:00,
2013-11-26 01:03:00,21.3,19.6,30.28,North,360,0.0,2.0,93,0.00,,,0.00,Weather View 32 v70,2013-11-26 07:03:00,
2013-11-26 01:08:00,20.9,19.2,30.29,North,360,0.0,2.0,93,0.00,,,0.00,Weather View 32 v70,2013-11-26 07:08:00,
2013-11-26 01:13:00,21.1,19.4,30.29,North,360,0.0,2.0,93,0.00,,,0.00,Weather View 32 v70,2013-11-26 07:13:00,
2013-11-26 01:18:00,21.5,19.8,30.28,North,360,0.0,2.0,93,0.00,,,0.00,Weather View 32 v70,2013-11-26 07:18:00,
2013-11-26 01:23:00,21.2,19.5,30.29,North,360,0.0,2.0,93,0.00,,,0.00,Weather View 32 v70,2013-11-26 07:23:00,
2013-11-26 01:28:00,20.9,19.2,30.29,WSW,247,0.0,2.0,93,0.00,,,0.00,Weather View 32 v70,2013-11-26 07:28:00,
2013-11-26 01:33:00,20.9,19.2,30.29,WSW,247,1.0,2.0,93,0.00,,,0.00,Weather View 32 v70,2013-11-26 07:33:00,
2013-11-26 01:38:00,20.9,19.2,30.29,West,270,1.0,2.0,93,0.00,,,0.00,Weather View 32 v70,2013-11-26 07:38:00,
2013-11-26 01:43:00,20.9,19.2,30.29,NW,315,2.0,2.0,93,0.00,,,0.00,Weather View 32 v70,2013-11-26 07:43:00,
2013-11-26 01:48:00,20.9,19.2,30.29,NW,315,3.0,4.0,93,0.00,,,0.00,Weather View 32 v70,2013-11-26 07:48:00,
2013-11-26 01:53:00,21.1,19.4,30.29,NW,315,2.0,4.0,93,0.00,,,0.00,Weather View 32 v70,2013-11-26 07:53:00,
2013-11-26 01:58:00,20.9,19.2,30.29,NW,315,0.0,4.0,93,0.00,,,0.00,Weather View 32 v70,2013-11-26 07:58:00,
2013-11-26 02:03:00,19.9,18.2,30.30,North,360,0.0,4.0,93,0.00,,,0.00,Weather View 32 v70,2013-11-26 08:03:00,
2013-11-26 02:08:00,19.4,17.7,30.30,NNE,22,2.0,4.0,93,0.00,,,0.00,Weather View 32 v70,2013-11-26 08:08:00,
2013-11-26 02:13:00,19.1,17.4,30.30,NNE,22,1.0,4.0,93,0.00,,,0.00,Weather View 32 v70,2013-11-26 08:13:00,
2013-11-26 02:18:00,19.0,17.3,30.30,NNE,22,1.0,4.0,93,0.00,,,0.00,Weather View 32 v70,2013-11-26 08:18:00,
2013-11-26 02:23:00,19.2,17.5,30.30,NNE,22,0.0,4.0,93,0.00,,,0.00,Weather View 32 v70,2013-11-26 08:23:00,
2013-11-26 02:28:00,19.4,17.7,30.30,North,360,1.0,4.0,93,0.00,,,0.00,Weather View 32 v70,2013-11-26 08:28:00,
2013-11-26 02:33:00,19.9,18.2,30.31,NW,315,2.0,4.0,93,0.00,,,0.00,Weather View 32 v70,2013-11-26 08:33:00,
2013-11-26 02:38:00,20.7,19.0,30.31,West,270,2.0,5.0,93,0.00,,,0.00,Weather View 32 v70,2013-11-26 08:38:00,
2013-11-26 02:43:00,21.4,19.7,30.31,NW,315,3.0,5.0,93,0.00,,,0.00,Weather View 32 v70,2013-11-26 08:43:00,
2013-11-26 02:48:00,21.6,19.9,30.30,NW,315,4.0,7.0,93,0.00,,,0.00,Weather View 32 v70,2013-11-26 08:48:00,
2013-11-26 02:53:00,22.0,20.3,30.30,NW,315,7.0,9.0,93,0.00,,,0.00,Weather View 32 v70,2013-11-26 08:53:00,
2013-11-26 02:58:00,22.4,20.7,30.30,WNW,292,6.0,9.0,93,0.00,,,0.00,Weather View 32 v70,2013-11-26 08:58:00,
2013-11-26 03:03:00,22.7,20.7,30.30,West,270,4.0,9.0,92,0.00,,,0.00,Weather View 32 v70,2013-11-26 09:03:00,
2013-11-26 03:08:00,22.9,20.7,30.30,WNW,292,6.0,9.0,91,0.00,,,0.00,Weather View 32 v70,2013-11-26 09:08:00,
2013-11-26 03:13:00,23.5,21.5,30.30,WNW,292,4.0,9.0,92,0.00,,,0.00,Weather View 32 v70,2013-11-26 09:13:00,
2013-11-26 03:18:00,23.9,21.7,30.29,NW,315,8.0,11.0,91,0.00,,,0.00,Weather View 32 v70,2013-11-26 09:18:00,
2013-11-26 03:23:00,24.7,21.9,30.29,WNW,292,7.0,12.0,89,0.00,,,0.00,Weather View 32 v70,2013-11-26 09:23:00,
2013-11-26 03:28:00,24.9,22.1,30.29,NW,315,4.0,12.0,89,0.00,,,0.00,Weather View 32 v70,2013-11-26 09:28:00,
2013-11-26 03:33:00,25.2,22.4,30.29,WNW,292,8.0,15.0,89,0.00,,,0.00,Weather View 32 v70,2013-11-26 09:33:00,
2013-11-26 03:38:00,25.4,22.6,30.29,WNW,292,5.0,15.0,89,0.00,,,0.00,Weather View 32 v70,2013-11-26 09:38:00,
2013-11-26 03:43:00,25.6,22.3,30.29,WNW,292,7.0,15.0,87,0.00,,,0.00,Weather View 32 v70,2013-11-26 09:43:00,
2013-11-26 03:48:00,25.7,22.4,30.29,NW,315,13.0,15.0,87,0.00,,,0.00,Weather View 32 v70,2013-11-26 09:48:00,
2013-11-26 03:53:00,25.9,22.0,30.29,West,270,5.0,17.0,85,0.00,,,0.00,Weather View 32 v70,2013-11-26 09:53:00,
2013-11-26 03:58:00,26.2,22.3,30.29,WNW,292,10.0,17.0,85,0.00,,,0.00,Weather View 32 v70,2013-11-26 09:58:00,
2013-11-26 04:03:00,26.4,22.5,30.29,NW,315,10.0,17.0,85,0.00,,,0.00,Weather View 32 v70,2013-11-26 10:03:00,
2013-11-26 04:08:00,26.5,22.6,30.28,WNW,292,9.0,17.0,85,0.00,,,0.00,Weather View 32 v70,2013-11-26 10:08:00,
2013-11-26 04:13:00,26.5,22.3,30.28,West,270,2.0,17.0,84,0.00,,,0.00,Weather View 32 v70,2013-11-26 10:13:00,
2013-11-26 04:18:00,26.5,22.3,30.28,WNW,292,7.0,17.0,84,0.00,,,0.00,Weather View 32 v70,2013-11-26 10:18:00,
2013-11-26 04:23:00,26.4,22.5,30.28,NW,315,9.0,17.0,85,0.00,,,0.00,Weather View 32 v70,2013-11-26 10:23:00,
2013-11-26 04:28:00,26.3,22.4,30.29,WNW,292,16.0,17.0,85,0.00,,,0.00,Weather View 32 v70,2013-11-26 10:28:00,
2013-11-26 04:33:00,26.3,22.4,30.29,WNW,292,7.0,17.0,85,0.00,,,0.00,Weather View 32 v70,2013-11-26 10:33:00,
2013-11-26 04:38:00,26.3,22.4,30.30,WNW,292,16.0,17.0,85,0.00,,,0.00,Weather View 32 v70,2013-11-26 10:38:00,
2013-11-26 04:43:00,26.3,22.7,30.30,NW,315,15.0,19.0,86,0.00,,,0.00,Weather View 32 v70,2013-11-26 10:43:00,
2013-11-26 04:48:00,26.4,22.8,30.29,WNW,292,14.0,19.0,86,0.00,,,0.00,Weather View 32 v70,2013-11-26 10:48:00,
2013-11-26 04:53:00,26.5,23.2,30.30,WNW,292,11.0,19.0,87,0.00,,,0.00,Weather View 32 v70,2013-11-26 10:53:00,
2013-11-26 04:58:00,26.5,23.2,30.30,West,270,9.0,19.0,87,0.00,,,0.00,Weather View 32 v70,2013-11-26 10:58:00,
2013-11-26 05:03:00,26.5,22.9,30.31,West,270,11.0,19.0,86,0.00,,,0.00,Weather View 32 v70,2013-11-26 11:03:00,
2013-11-26 05:08:00,26.5,22.9,30.31,WNW,292,10.0,19.0,86,0.00,,,0.00,Weather View 32 v70,2013-11-26 11:08:00,
2013-11-26 05:13:00,26.6,23.3,30.31,WNW,292,6.0,19.0,87,0.00,,,0.00,Weather View 32 v70,2013-11-26 11:13:00,
2013-11-26 05:18:00,26.7,23.4,30.31,WNW,292,8.0,19.0,87,0.00,,,0.00,Weather View 32 v70,2013-11-26 11:18:00,
2013-11-26 05:23:00,26.7,23.4,30.31,West,270,6.0,19.0,87,0.00,,,0.00,Weather View 32 v70,2013-11-26 11:23:00,
2013-11-26 05:28:00,26.8,23.5,30.31,West,270,5.0,19.0,87,0.00,,,0.00,Weather View 32 v70,2013-11-26 11:28:00,
2013-11-26 05:34:00,26.9,23.5,30.32,West,270,7.0,19.0,87,0.00,,,0.00,Weather View 32 v70,2013-11-26 11:34:00,
2013-11-26 05:39:00,26.9,23.3,30.32,SW,225,2.0,19.0,86,0.00,,,0.00,Weather View 32 v70,2013-11-26 11:39:00,
2013-11-26 05:44:00,27.0,23.4,30.32,WNW,292,10.0,18.0,86,0.00,,,0.00,Weather View 32 v70,2013-11-26 11:44:00,
2013-11-26 05:49:00,27.1,23.7,30.32,WNW,292,13.0,16.0,87,0.00,,,0.00,Weather View 32 v70,2013-11-26 11:49:00,
2013-11-26 05:54:00,27.2,23.8,30.32,WNW,292,9.0,17.0,87,0.00,,,0.00,Weather View 32 v70,2013-11-26 11:54:00,
2013-11-26 05:59:00,27.0,23.4,30.33,West,270,7.0,17.0,86,0.00,,,0.00,Weather View 32 v70,2013-11-26 11:59:00,
2013-11-26 06:04:00,27.0,23.6,30.33,West,270,6.0,17.0,87,0.00,,,0.00,Weather View 32 v70,2013-11-26 12:04:00,
2013-11-26 06:09:00,27.2,23.6,30.33,West,270,6.0,17.0,86,0.00,,,0.00,Weather View 32 v70,2013-11-26 12:09:00,
2013-11-26 06:14:00,27.2,23.6,30.33,WNW,292,11.0,17.0,86,0.00,,,0.00,Weather View 32 v70,2013-11-26 12:14:00,
2013-11-26 06:19:00,27.7,23.8,30.33,NW,315,14.0,19.0,85,0.00,,,0.00,Weather View 32 v70,2013-11-26 12:19:00,
2013-11-26 06:24:00,28.0,23.5,30.33,NW,315,16.0,22.0,83,0.00,,,0.00,Weather View 32 v70,2013-11-26 12:24:00,
2013-11-26 06:29:00,28.2,23.4,30.33,NW,315,14.0,22.0,82,0.00,,,0.00,Weather View 32 v70,2013-11-26 12:29:00,
2013-11-26 06:34:00,28.3,23.2,30.33,WNW,292,12.0,22.0,81,0.00,,,0.00,Weather View 32 v70,2013-11-26 12:34:00,
2013-11-26 06:39:00,28.2,22.8,30.34,NW,315,9.0,22.0,80,0.00,,,0.00,Weather View 32 v70,2013-11-26 12:39:00,
2013-11-26 06:44:00,28.2,22.8,30.34,NW,315,8.0,22.0,80,0.00,,,0.00,Weather View 32 v70,2013-11-26 12:44:00,
2013-11-26 06:49:00,28.0,22.3,30.35,NW,315,8.0,22.0,79,0.00,,,0.00,Weather View 32 v70,2013-11-26 12:49:00,
2013-11-26 06:54:00,27.9,22.2,30.35,NW,315,10.0,22.0,79,0.00,,,0.00,Weather View 32 v70,2013-11-26 12:54:00,
2013-11-26 06:59:00,27.9,21.3,30.35,NW,315,13.0,22.0,76,0.00,,,0.00,Weather View 32 v70,2013-11-26 12:59:00,
2013-11-26 07:04:00,27.6,20.7,30.35,WNW,292,15.0,25.0,75,0.00,,,0.00,Weather View 32 v70,2013-11-26 13:04:00,
2013-11-26 07:09:00,26.9,20.3,30.36,WNW,292,12.0,26.0,76,0.00,,,0.00,Weather View 32 v70,2013-11-26 13:09:00,
2013-11-26 07:14:00,26.4,19.9,30.35,NW,315,5.0,26.0,76,0.00,,,0.00,Weather View 32 v70,2013-11-26 13:14:00,
2013-11-26 07:19:00,25.9,19.4,30.37,WNW,292,21.0,26.0,76,0.00,,,0.00,Weather View 32 v70,2013-11-26 13:19:00,
2013-11-26 07:24:00,25.5,19.0,30.38,WNW,292,10.0,26.0,76,0.00,,,0.00,Weather View 32 v70,2013-11-26 13:24:00,
2013-11-26 07:29:00,25.1,18.6,30.39,NW,315,14.0,26.0,76,0.00,,,0.00,Weather View 32 v70,2013-11-26 13:29:00,
2013-11-26 07:34:00,24.8,18.6,30.38,NW,315,14.0,26.0,77,0.00,,,0.00,Weather View 32 v70,2013-11-26 13:34:00,
2013-11-26 07:39:00,24.5,18.3,30.38,NW,315,14.0,26.0,77,0.00,,,0.00,Weather View 32 v70,2013-11-26 13:39:00,
2013-11-26 07:44:00,24.1,18.2,30.39,NW,315,14.0,26.0,78,0.00,,,0.00,Weather View 32 v70,2013-11-26 13:44:00,
2013-11-26 07:49:00,23.8,18.2,30.40,NW,315,17.0,26.0,79,0.00,,,0.00,Weather View 32 v70,2013-11-26 13:49:00,
2013-11-26 07:54:00,23.7,18.1,30.40,NW,315,11.0,26.0,79,0.00,,,0.00,Weather View 32 v70,2013-11-26 13:54:00,
2013-11-26 07:59:00,23.5,17.9,30.40,NW,315,9.0,26.0,79,0.00,,,0.00,Weather View 32 v70,2013-11-26 13:59:00,
2013-11-26 08:05:00,23.3,17.5,30.41,WNW,292,18.0,26.0,78,0.00,,,0.00,Weather View 32 v70,2013-11-26 14:05:00,
2013-11-26 08:10:00,23.2,17.7,30.41,NW,315,15.0,25.0,79,0.00,,,0.00,Weather View 32 v70,2013-11-26 14:10:00,
2013-11-26 08:15:00,22.9,17.7,30.42,WNW,292,12.0,24.0,80,0.00,,,0.00,Weather View 32 v70,2013-11-26 14:15:00,
2013-11-26 08:20:00,22.6,17.4,30.42,NW,315,13.0,24.0,80,0.00,,,0.00,Weather View 32 v70,2013-11-26 14:20:00,
2013-11-26 08:25:00,22.4,16.6,30.42,NW,315,9.0,22.0,78,0.00,,,0.00,Weather View 32 v70,2013-11-26 14:25:00,
2013-11-26 08:30:00,22.3,17.1,30.43,NNW,337,12.0,22.0,80,0.00,,,0.00,Weather View 32 v70,2013-11-26 14:30:00,
2013-11-26 08:35:00,22.2,17.0,30.44,NW,315,9.0,22.0,80,0.00,,,0.00,Weather View 32 v70,2013-11-26 14:35:00,
2013-11-26 08:40:00,22.2,17.0,30.44,WNW,292,10.0,22.0,80,0.00,,,0.00,Weather View 32 v70,2013-11-26 14:40:00,
2013-11-26 08:45:00,22.2,17.0,30.44,WNW,292,9.0,22.0,80,0.00,,,0.00,Weather View 32 v70,2013-11-26 14:45:00,
2013-11-26 08:50:00,22.2,16.7,30.44,NW,315,14.0,22.0,79,0.00,,,0.00,Weather View 32 v70,2013-11-26 14:50:00,
2013-11-26 08:55:00,21.8,14.8,30.44,WNW,292,17.0,30.0,74,0.00,,,0.00,Weather View 32 v70,2013-11-26 14:55:00,
2013-11-26 09:00:00,21.5,14.8,30.44,West,270,13.0,30.0,75,0.00,,,0.00,Weather View 32 v70,2013-11-26 15:00:00,
2013-11-26 09:05:00,21.0,13.4,30.45,West,270,15.0,30.0,72,0.00,,,0.00,Weather View 32 v70,2013-11-26 15:05:00,
2013-11-26 09:10:00,20.3,12.4,30.46,WNW,292,15.0,30.0,71,0.00,,,0.00,Weather View 32 v70,2013-11-26 15:10:00,
2013-11-26 09:15:00,20.2,12.3,30.46,WNW,292,19.0,30.0,71,0.00,,,0.00,Weather View 32 v70,2013-11-26 15:15:00,
2013-11-26 09:20:00,20.3,12.7,30.47,NW,315,15.0,30.0,72,0.00,,,0.00,Weather View 32 v70,2013-11-26 15:20:00,
2013-11-26 09:25:00,20.1,12.2,30.46,West,270,14.0,30.0,71,0.00,,,0.00,Weather View 32 v70,2013-11-26 15:25:00,
2013-11-26 09:30:00,20.3,12.7,30.47,NW,315,15.0,30.0,72,0.00,,,0.00,Weather View 32 v70,2013-11-26 15:30:00,
2013-11-26 09:35:00,20.4,13.1,30.47,West,270,13.0,30.0,73,0.00,,,0.00,Weather View 32 v70,2013-11-26 15:35:00,
2013-11-26 09:40:00,20.2,12.3,30.46,NNW,337,13.0,30.0,71,0.00,,,0.00,Weather View 32 v70,2013-11-26 15:40:00,
2013-11-26 09:45:00,20.3,11.8,30.48,NNW,337,16.0,30.0,69,0.00,,,0.00,Weather View 32 v70,2013-11-26 15:45:00,
2013-11-26 09:50:00,20.3,11.8,30.48,WNW,292,21.0,30.0,69,0.00,,,0.00,Weather View 32 v70,2013-11-26 15:50:00,
2013-11-26 09:55:00,20.4,12.5,30.49,WNW,292,12.0,27.0,71,0.00,,,0.00,Weather View 32 v70,2013-11-26 15:55:00,
2013-11-26 10:00:00,20.2,12.3,30.49,NW,315,22.0,27.0,71,0.00,,,0.00,Weather View 32 v70,2013-11-26 16:00:00,
2013-11-26 10:05:00,20.1,12.2,30.48,NW,315,20.0,27.0,71,0.00,,,0.00,Weather View 32 v70,2013-11-26 16:05:00,
2013-11-26 10:10:00,20.0,11.8,30.49,NW,315,14.0,27.0,70,0.00,,,0.00,Weather View 32 v70,2013-11-26 16:10:00,
2013-11-26 10:15:00,20.2,11.7,30.49,NW,315,5.0,27.0,69,0.00,,,0.00,Weather View 32 v70,2013-11-26 16:15:00,
2013-11-26 10:20:00,20.7,12.8,30.49,NW,315,21.0,27.0,71,0.00,,,0.00,Weather View 32 v70,2013-11-26 16:20:00,
2013-11-26 10:25:00,20.9,11.3,30.49,WNW,292,14.0,27.0,66,0.00,,,0.00,Weather View 32 v70,2013-11-26 16:25:00,
2013-11-26 10:30:00,21.3,10.3,30.50,NW,315,11.0,27.0,62,0.00,,,0.00,Weather View 32 v70,2013-11-26 16:30:00,
2013-11-26 10:35:00,21.3,8.8,30.48,North,360,12.0,27.0,58,0.00,,,0.00,Weather View 32 v70,2013-11-26 16:35:00,
2013-11-26 10:40:00,21.5,9.8,30.49,WNW,292,14.0,27.0,60,0.00,,,0.00,Weather View 32 v70,2013-11-26 16:40:00,
2013-11-26 10:45:00,21.5,9.0,30.49,NW,315,14.0,27.0,58,0.00,,,0.00,Weather View 32 v70,2013-11-26 16:45:00,
2013-11-26 10:50:00,21.4,8.9,30.49,WNW,292,15.0,27.0,58,0.00,,,0.00,Weather View 32 v70,2013-11-26 16:50:00,
2013-11-26 10:55:00,21.5,8.2,30.50,NNW,337,11.0,27.0,56,0.00,,,0.00,Weather View 32 v70,2013-11-26 16:55:00,
2013-11-26 11:01:00,21.4,9.3,30.50,NW,315,13.0,29.0,59,0.00,,,0.00,Weather View 32 v70,2013-11-26 17:01:00,
2013-11-26 11:06:00,21.4,9.3,30.49,NW,315,19.0,29.0,59,0.00,,,0.00,Weather View 32 v70,2013-11-26 17:06:00,
2013-11-26 11:11:00,21.7,8.0,30.49,NW,315,14.0,29.0,55,0.00,,,0.00,Weather View 32 v70,2013-11-26 17:11:00,
2013-11-26 11:16:00,21.9,10.1,30.49,NW,315,26.0,29.0,60,0.00,,,0.00,Weather View 32 v70,2013-11-26 17:16:00,
2013-11-26 11:21:00,21.8,9.3,30.49,NW,315,15.0,29.0,58,0.00,,,0.00,Weather View 32 v70,2013-11-26 17:21:00,
2013-11-26 11:26:00,22.2,10.4,30.49,NW,315,12.0,29.0,60,0.00,,,0.00,Weather View 32 v70,2013-11-26 17:26:00,
2013-11-26 11:31:00,22.1,8.8,30.49,WNW,292,24.0,30.0,56,0.00,,,0.00,Weather View 32 v70,2013-11-26 17:31:00,
2013-11-26 11:36:00,22.3,8.2,30.47,WNW,292,16.0,30.0,54,0.00,,,0.00,Weather View 32 v70,2013-11-26 17:36:00,
2013-11-26 11:41:00,22.5,7.5,30.48,West,270,22.0,30.0,52,0.00,,,0.00,Weather View 32 v70,2013-11-26 17:41:00,
2013-11-26 11:46:00,22.7,8.1,30.48,NW,315,11.0,30.0,53,0.00,,,0.00,Weather View 32 v70,2013-11-26 17:46:00,
2013-11-26 11:51:00,22.7,9.0,30.49,SSE,157,4.0,31.0,55,0.00,,,0.00,Weather View 32 v70,2013-11-26 17:51:00,
2013-11-26 11:56:00,22.6,9.3,30.48,NW,315,21.0,31.0,56,0.00,,,0.00,Weather View 32 v70,2013-11-26 17:56:00,
2013-11-26 12:01:00,22.9,7.5,30.48,NW,315,19.0,31.0,51,0.00,,,0.00,Weather View 32 v70,2013-11-26 18:01:00,
2013-11-26 12:06:00,22.9,6.6,30.48,NW,315,16.0,31.0,49,0.00,,,0.00,Weather View 32 v70,2013-11-26 18:06:00,
2013-11-26 12:11:00,23.5,7.1,30.48,NW,315,8.0,31.0,49,0.00,,,0.00,Weather View 32 v70,2013-11-26 18:11:00,
2013-11-26 12:16:00,23.7,6.9,30.48,West,270,7.0,31.0,48,0.00,,,0.00,Weather View 32 v70,2013-11-26 18:16:00,
2013-11-26 12:21:00,23.6,8.1,30.48,NW,315,13.0,31.0,51,0.00,,,0.00,Weather View 32 v70,2013-11-26 18:21:00,
2013-11-26 12:26:00,23.7,7.8,30.48,NW,315,24.0,31.0,50,0.00,,,0.00,Weather View 32 v70,2013-11-26 18:26:00,
2013-11-26 12:31:00,23.8,6.5,30.48,NNW,337,17.0,31.0,47,0.00,,,0.00,Weather View 32 v70,2013-11-26 18:31:00,
2013-11-26 12:36:00,23.6,8.5,30.47,NW,315,14.0,31.0,52,0.00,,,0.00,Weather View 32 v70,2013-11-26 18:36:00,
2013-11-26 12:41:00,23.8,7.0,30.46,WNW,292,19.0,31.0,48,0.00,,,0.00,Weather View 32 v70,2013-11-26 18:41:00,
2013-11-26 12:46:00,23.9,8.4,30.46,WNW,292,8.0,31.0,51,0.00,,,0.00,Weather View 32 v70,2013-11-26 18:46:00,
2013-11-26 12:51:00,23.9,8.0,30.47,NNW,337,14.0,31.0,50,0.00,,,0.00,Weather View 32 v70,2013-11-26 18:51:00,
2013-11-26 12:56:00,23.7,8.2,30.46,WNW,292,17.0,32.0,51,0.00,,,0.00,Weather View 32 v70,2013-11-26 18:56:00,
2013-11-26 13:01:00,23.7,7.8,30.46,WNW,292,22.0,32.0,50,0.00,,,0.00,Weather View 32 v70,2013-11-26 19:01:00,
2013-11-26 13:06:00,23.6,7.2,30.45,NW,315,21.0,33.0,49,0.00,,,0.00,Weather View 32 v70,2013-11-26 19:06:00,
2013-11-26 13:11:00,23.9,7.1,30.46,NW,315,12.0,33.0,48,0.00,,,0.00,Weather View 32 v70,2013-11-26 19:11:00,
2013-11-26 13:16:00,23.9,7.5,30.44,NW,315,21.0,33.0,49,0.00,,,0.00,Weather View 32 v70,2013-11-26 19:16:00,
2013-11-26 13:21:00,24.4,8.4,30.45,NW,315,31.0,33.0,50,0.00,,,0.00,Weather View 32 v70,2013-11-26 19:21:00,
2013-11-26 13:26:00,24.4,8.0,30.46,WNW,292,21.0,33.0,49,0.00,,,0.00,Weather View 32 v70,2013-11-26 19:26:00,
2013-11-26 13:32:00,24.3,7.4,30.45,NW,315,17.0,33.0,48,0.00,,,0.00,Weather View 32 v70,2013-11-26 19:32:00,
2013-11-26 13:37:00,24.4,8.4,30.46,NW,315,15.0,36.0,50,0.00,,,0.00,Weather View 32 v70,2013-11-26 19:37:00,
2013-11-26 13:42:00,24.3,7.4,30.45,NW,315,21.0,36.0,48,0.00,,,0.00,Weather View 32 v70,2013-11-26 19:42:00,
2013-11-26 13:47:00,24.5,7.6,30.45,NNW,337,15.0,36.0,48,0.00,,,0.00,Weather View 32 v70,2013-11-26 19:47:00,
2013-11-26 13:52:00,24.7,7.8,30.45,WNW,292,14.0,36.0,48,0.00,,,0.00,Weather View 32 v70,2013-11-26 19:52:00,
2013-11-26 13:57:00,24.4,7.5,30.45,NW,315,24.0,36.0,48,0.00,,,0.00,Weather View 32 v70,2013-11-26 19:57:00,
2013-11-26 14:02:00,24.5,7.6,30.45,NNW,337,21.0,36.0,48,0.00,,,0.00,Weather View 32 v70,2013-11-26 20:02:00,
2013-11-26 14:07:00,24.7,6.9,30.45,WNW,292,14.0,36.0,46,0.00,,,0.00,Weather View 32 v70,2013-11-26 20:07:00,
2013-11-26 14:12:00,24.6,7.7,30.46,WNW,292,22.0,36.0,48,0.00,,,0.00,Weather View 32 v70,2013-11-26 20:12:00,
2013-11-26 14:17:00,24.9,7.5,30.45,West,270,3.0,36.0,47,0.00,,,0.00,Weather View 32 v70,2013-11-26 20:17:00,
2013-11-26 14:22:00,24.9,7.0,30.46,NW,315,16.0,36.0,46,0.00,,,0.00,Weather View 32 v70,2013-11-26 20:22:00,
2013-11-26 14:27:00,24.9,6.6,30.46,NW,315,18.0,36.0,45,0.00,,,0.00,Weather View 32 v70,2013-11-26 20:27:00,
2013-11-26 14:32:00,25.0,7.6,30.45,WNW,292,22.0,36.0,47,0.00,,,0.00,Weather View 32 v70,2013-11-26 20:32:00,
2013-11-26 14:37:00,24.6,6.8,30.45,NW,315,19.0,33.0,46,0.00,,,0.00,Weather View 32 v70,2013-11-26 20:37:00,
2013-11-26 14:42:00,24.8,7.9,30.44,West,270,16.0,33.0,48,0.00,,,0.00,Weather View 32 v70,2013-11-26 20:42:00,
2013-11-26 14:47:00,24.9,7.0,30.44,NW,315,27.0,33.0,46,0.00,,,0.00,Weather View 32 v70,2013-11-26 20:47:00,
2013-11-26 14:52:00,24.8,6.9,30.46,WNW,292,23.0,33.0,46,0.00,,,0.00,Weather View 32 v70,2013-11-26 20:52:00,
2013-11-26 14:57:00,25.2,6.8,30.45,NW,315,12.0,33.0,45,0.00,,,0.00,Weather View 32 v70,2013-11-26 20:57:00,
2013-11-26 15:02:00,25.4,8.4,30.46,NW,315,21.0,33.0,48,0.00,,,0.00,Weather View 32 v70,2013-11-26 21:02:00,
2013-11-26 15:07:00,25.2,6.8,30.44,NW,315,12.0,33.0,45,0.00,,,0.00,Weather View 32 v70,2013-11-26 21:07:00,
2013-11-26 15:12:00,24.9,7.5,30.45,WNW,292,18.0,33.0,47,0.00,,,0.00,Weather View 32 v70,2013-11-26 21:12:00,
2013-11-26 15:17:00,25.1,7.2,30.46,NW,315,23.0,33.0,46,0.00,,,0.00,Weather View 32 v70,2013-11-26 21:17:00,
2013-11-26 15:22:00,25.0,7.1,30.45,NW,315,20.0,33.0,46,0.00,,,0.00,Weather View 32 v70,2013-11-26 21:22:00,
2013-11-26 15:27:00,24.9,7.5,30.45,WNW,292,17.0,33.0,47,0.00,,,0.00,Weather View 32 v70,2013-11-26 21:27:00,
2013-11-26 15:32:00,24.9,8.0,30.45,WNW,292,20.0,33.0,48,0.00,,,0.00,Weather View 32 v70,2013-11-26 21:32:00,
2013-11-26 15:37:00,25.1,9.1,30.46,NW,315,24.0,33.0,50,0.00,,,0.00,Weather View 32 v70,2013-11-26 21:37:00,
2013-11-26 15:42:00,25.1,9.1,30.45,NW,315,9.0,33.0,50,0.00,,,0.00,Weather View 32 v70,2013-11-26 21:42:00,
2013-11-26 15:47:00,25.4,7.5,30.46,WNW,292,16.0,33.0,46,0.00,,,0.00,Weather View 32 v70,2013-11-26 21:47:00,
2013-11-26 15:52:00,25.2,7.3,30.46,NW,315,24.0,30.0,46,0.00,,,0.00,Weather View 32 v70,2013-11-26 21:52:00,
2013-11-26 15:57:00,25.1,6.7,30.45,NNW,337,10.0,30.0,45,0.00,,,0.00,Weather View 32 v70,2013-11-26 21:57:00,
2013-11-26 16:03:00,24.8,7.4,30.45,NW,315,21.0,30.0,47,0.00,,,0.00,Weather View 32 v70,2013-11-26 22:03:00,
2013-11-26 16:08:00,24.8,8.3,30.46,NW,315,4.0,30.0,49,0.00,,,0.00,Weather View 32 v70,2013-11-26 22:08:00,
2013-11-26 16:13:00,24.7,7.8,30.46,WNW,292,11.0,30.0,48,0.00,,,0.00,Weather View 32 v70,2013-11-26 22:13:00,
2013-11-26 16:18:00,24.5,8.5,30.46,NW,315,15.0,30.0,50,0.00,,,0.00,Weather View 32 v70,2013-11-26 22:18:00,
2013-11-26 16:23:00,24.4,8.4,30.46,WNW,292,12.0,29.0,50,0.00,,,0.00,Weather View 32 v70,2013-11-26 22:23:00,
2013-11-26 16:28:00,24.2,8.7,30.46,NW,315,8.0,28.0,51,0.00,,,0.00,Weather View 32 v70,2013-11-26 22:28:00,
2013-11-26 16:33:00,23.9,8.4,30.46,WNW,292,8.0,27.0,51,0.00,,,0.00,Weather View 32 v70,2013-11-26 22:33:00,
2013-11-26 16:38:00,23.8,9.2,30.46,NW,315,16.0,27.0,53,0.00,,,0.00,Weather View 32 v70,2013-11-26 22:38:00,
2013-11-26 16:43:00,23.5,8.9,30.46,NW,315,23.0,27.0,53,0.00,,,0.00,Weather View 32 v70,2013-11-26 22:43:00,
2013-11-26 16:48:00,23.3,8.7,30.47,WSW,247,5.0,27.0,53,0.00,,,0.00,Weather View 32 v70,2013-11-26 22:48:00,
2013-11-26 16:53:00,23.1,8.1,30.47,NW,315,8.0,27.0,52,0.00,,,0.00,Weather View 32 v70,2013-11-26 22:53:00,
2013-11-26 16:58:00,22.9,9.1,30.47,NW,315,17.0,27.0,55,0.00,,,0.00,Weather View 32 v70,2013-11-26 22:58:00,
2013-11-26 17:03:00,22.8,9.0,30.47,NW,315,14.0,27.0,55,0.00,,,0.00,Weather View 32 v70,2013-11-26 23:03:00,
2013-11-26 17:08:00,22.7,9.0,30.47,NW,315,17.0,26.0,55,0.00,,,0.00,Weather View 32 v70,2013-11-26 23:08:00,
2013-11-26 17:13:00,22.5,7.9,30.47,WNW,292,12.0,26.0,53,0.00,,,0.00,Weather View 32 v70,2013-11-26 23:13:00,
2013-11-26 17:18:00,22.4,8.3,30.47,WNW,292,11.0,26.0,54,0.00,,,0.00,Weather View 32 v70,2013-11-26 23:18:00,
2013-11-26 17:23:00,22.3,9.4,30.46,WNW,292,11.0,26.0,57,0.00,,,0.00,Weather View 32 v70,2013-11-26 23:23:00,
2013-11-26 17:28:00,22.2,8.5,30.47,NW,315,4.0,26.0,55,0.00,,,0.00,Weather View 32 v70,2013-11-26 23:28:00,
2013-11-26 17:33:00,21.9,8.2,30.46,SSW,202,3.0,23.0,55,0.00,,,0.00,Weather View 32 v70,2013-11-26 23:33:00,
2013-11-26 17:38:00,21.9,9.0,30.47,WNW,292,6.0,23.0,57,0.00,,,0.00,Weather View 32 v70,2013-11-26 23:38:00,
2013-11-26 17:43:00,21.6,8.3,30.48,WNW,292,9.0,23.0,56,0.00,,,0.00,Weather View 32 v70,2013-11-26 23:43:00,
2013-11-26 17:48:00,21.4,9.3,30.48,NW,315,10.0,23.0,59,0.00,,,0.00,Weather View 32 v70,2013-11-26 23:48:00,
2013-11-26 17:53:00,21.1,8.6,30.49,NW,315,13.0,21.0,58,0.00,,,0.00,Weather View 32 v70,2013-11-26 23:53:00,
2013-11-26 17:58:00,20.9,8.8,30.49,NW,315,11.0,21.0,59,0.00,,,0.00,Weather View 32 v70,2013-11-26 23:58:00,
2013-11-26 18:03:00,20.8,8.7,30.49,West,270,6.0,19.0,59,0.00,,,0.00,Weather View 32 v70,2013-11-27 00:03:00,
2013-11-26 18:08:00,20.5,8.8,30.49,WNW,292,6.0,19.0,60,0.00,,,0.00,Weather View 32 v70,2013-11-27 00:08:00,
2013-11-26 18:13:00,20.2,8.5,30.49,West,270,5.0,19.0,60,0.00,,,0.00,Weather View 32 v70,2013-11-27 00:13:00,
2013-11-26 18:18:00,20.1,8.8,30.49,WNW,292,10.0,19.0,61,0.00,,,0.00,Weather View 32 v70,2013-11-27 00:18:00,
2013-11-26 18:23:00,19.9,9.0,30.49,WNW,292,11.0,19.0,62,0.00,,,0.00,Weather View 32 v70,2013-11-27 00:23:00,
2013-11-26 18:28:00,19.9,9.3,30.49,WNW,292,11.0,19.0,63,0.00,,,0.00,Weather View 32 v70,2013-11-27 00:28:00,
2013-11-26 18:33:00,19.9,9.3,30.49,West,270,7.0,17.0,63,0.00,,,0.00,Weather View 32 v70,2013-11-27 00:33:00,
2013-11-26 18:38:00,19.9,9.3,30.49,NW,315,9.0,17.0,63,0.00,,,0.00,Weather View 32 v70,2013-11-27 00:38:00,
2013-11-26 18:43:00,19.8,9.6,30.49,WNW,292,7.0,16.0,64,0.00,,,0.00,Weather View 32 v70,2013-11-27 00:43:00,
2013-11-26 18:48:00,19.8,9.9,30.49,West,270,4.0,16.0,65,0.00,,,0.00,Weather View 32 v70,2013-11-27 00:48:00,
2013-11-26 18:53:00,19.6,9.4,30.49,WNW,292,9.0,16.0,64,0.00,,,0.00,Weather View 32 v70,2013-11-27 00:53:00,
2013-11-26 18:59:00,19.5,9.3,30.49,WNW,292,9.0,16.0,64,0.00,,,0.00,Weather View 32 v70,2013-11-27 00:59:00,
2013-11-26 19:04:00,19.3,10.1,30.49,WNW,292,8.0,16.0,67,0.00,,,0.00,Weather View 32 v70,2013-11-27 01:04:00,
2013-11-26 19:09:00,19.2,10.0,30.49,WNW,292,9.0,16.0,67,0.00,,,0.00,Weather View 32 v70,2013-11-27 01:09:00,
2013-11-26 19:14:00,19.2,10.4,30.49,NW,315,11.0,16.0,68,0.00,,,0.00,Weather View 32 v70,2013-11-27 01:14:00,
2013-11-26 19:19:00,19.1,9.6,30.49,West,270,6.0,16.0,66,0.00,,,0.00,Weather View 32 v70,2013-11-27 01:19:00,
2013-11-26 19:24:00,19.1,9.9,30.49,NW,315,12.0,16.0,67,0.00,,,0.00,Weather View 32 v70,2013-11-27 01:24:00,
2013-11-26 19:29:00,18.9,10.1,30.49,WNW,292,7.0,16.0,68,0.00,,,0.00,Weather View 32 v70,2013-11-27 01:29:00,
2013-11-26 19:34:00,18.9,10.4,30.49,West,270,7.0,16.0,69,0.00,,,0.00,Weather View 32 v70,2013-11-27 01:34:00,
2013-11-26 19:39:00,18.6,10.1,30.49,WNW,292,5.0,16.0,69,0.00,,,0.00,Weather View 32 v70,2013-11-27 01:39:00,
2013-11-26 19:44:00,18.4,10.3,30.49,WNW,292,7.0,16.0,70,0.00,,,0.00,Weather View 32 v70,2013-11-27 01:44:00,
2013-11-26 19:49:00,18.3,10.5,30.49,NW,315,4.0,16.0,71,0.00,,,0.00,Weather View 32 v70,2013-11-27 01:49:00,
2013-11-26 19:54:00,18.1,10.3,30.50,NW,315,4.0,16.0,71,0.00,,,0.00,Weather View 32 v70,2013-11-27 01:54:00,
2013-11-26 19:59:00,17.9,10.1,30.50,WNW,292,4.0,15.0,71,0.00,,,0.00,Weather View 32 v70,2013-11-27 01:59:00,
2013-11-26 20:04:00,17.8,10.0,30.50,WNW,292,2.0,15.0,71,0.00,,,0.00,Weather View 32 v70,2013-11-27 02:04:00,
2013-11-26 20:09:00,17.7,9.9,30.50,WNW,292,6.0,15.0,71,0.00,,,0.00,Weather View 32 v70,2013-11-27 02:09:00,
2013-11-26 20:14:00,17.6,10.4,30.50,WNW,292,7.0,15.0,73,0.00,,,0.00,Weather View 32 v70,2013-11-27 02:14:00,
2013-11-26 20:19:00,17.5,10.3,30.49,NW,315,7.0,15.0,73,0.00,,,0.00,Weather View 32 v70,2013-11-27 02:19:00,
2013-11-26 20:24:00,17.4,9.9,30.49,West,270,3.0,15.0,72,0.00,,,0.00,Weather View 32 v70,2013-11-27 02:24:00,
2013-11-26 20:29:00,17.5,9.7,30.49,NW,315,9.0,15.0,71,0.00,,,0.00,Weather View 32 v70,2013-11-27 02:29:00,
2013-11-26 20:34:00,17.4,9.6,30.50,West,270,7.0,14.0,71,0.00,,,0.00,Weather View 32 v70,2013-11-27 02:34:00,
2013-11-26 20:39:00,17.2,9.7,30.50,NW,315,9.0,14.0,72,0.00,,,0.00,Weather View 32 v70,2013-11-27 02:39:00,
2013-11-26 20:44:00,16.9,9.4,30.50,NW,315,8.0,14.0,72,0.00,,,0.00,Weather View 32 v70,2013-11-27 02:44:00,
2013-11-26 20:49:00,16.8,9.7,30.50,WNW,292,9.0,14.0,73,0.00,,,0.00,Weather View 32 v70,2013-11-27 02:49:00,
2013-11-26 20:54:00,16.8,9.7,30.50,NNW,337,4.0,14.0,73,0.00,,,0.00,Weather View 32 v70,2013-11-27 02:54:00,
2013-11-26 20:59:00,16.7,9.6,30.49,WNW,292,8.0,14.0,73,0.00,,,0.00,Weather View 32 v70,2013-11-27 02:59:00,
2013-11-26 21:04:00,16.6,9.5,30.50,WNW,292,8.0,14.0,73,0.00,,,0.00,Weather View 32 v70,2013-11-27 03:04:00,
2013-11-26 21:09:00,16.5,9.4,30.50,NW,315,10.0,14.0,73,0.00,,,0.00,Weather View 32 v70,2013-11-27 03:09:00,
2013-11-26 21:14:00,16.3,9.2,30.49,NW,315,9.0,14.0,73,0.00,,,0.00,Weather View 32 v70,2013-11-27 03:14:00,
2013-11-26 21:19:00,16.1,9.9,30.51,NW,315,8.0,14.0,76,0.00,,,0.00,Weather View 32 v70,2013-11-27 03:19:00,
2013-11-26 21:24:00,15.9,9.7,30.51,NW,315,3.0,14.0,76,0.00,,,0.00,Weather View 32 v70,2013-11-27 03:24:00,
2013-11-26 21:29:00,15.8,9.3,30.51,NW,315,6.0,14.0,75,0.00,,,0.00,Weather View 32 v70,2013-11-27 03:29:00,
2013-11-26 21:35:00,15.7,9.2,30.51,NW,315,6.0,13.0,75,0.00,,,0.00,Weather View 32 v70,2013-11-27 03:35:00,
2013-11-26 21:40:00,15.6,9.1,30.51,NW,315,4.0,13.0,75,0.00,,,0.00,Weather View 32 v70,2013-11-27 03:40:00,
2013-11-26 21:45:00,15.2,8.4,30.52,NW,315,3.0,13.0,74,0.00,,,0.00,Weather View 32 v70,2013-11-27 03:45:00,
2013-11-26 21:50:00,14.7,8.2,30.52,NW,315,3.0,13.0,75,0.00,,,0.00,Weather View 32 v70,2013-11-27 03:50:00,
2013-11-26 21:55:00,14.5,8.3,30.52,NW,315,6.0,13.0,76,0.00,,,0.00,Weather View 32 v70,2013-11-27 03:55:00,
2013-11-26 22:00:00,14.4,8.2,30.52,NW,315,4.0,13.0,76,0.00,,,0.00,Weather View 32 v70,2013-11-27 04:00:00,
2013-11-26 22:05:00,14.2,8.0,30.52,NW,315,8.0,12.0,76,0.00,,,0.00,Weather View 32 v70,2013-11-27 04:05:00,
2013-11-26 22:10:00,14.2,8.9,30.52,NW,315,4.0,12.0,79,0.00,,,0.00,Weather View 32 v70,2013-11-27 04:10:00,
2013-11-26 22:15:00,14.1,8.8,30.52,NW,315,3.0,11.0,79,0.00,,,0.00,Weather View 32 v70,2013-11-27 04:15:00,
2013-11-26 22:20:00,13.9,8.6,30.52,NW,315,4.0,9.0,79,0.00,,,0.00,Weather View 32 v70,2013-11-27 04:20:00,
2013-11-26 22:25:00,13.9,9.2,30.52,WNW,292,5.0,9.0,81,0.00,,,0.00,Weather View 32 v70,2013-11-27 04:25:00,
2013-11-26 22:30:00,13.9,9.2,30.52,NW,315,3.0,9.0,81,0.00,,,0.00,Weather View 32 v70,2013-11-27 04:30:00,
2013-11-26 22:35:00,13.6,8.3,30.52,NNW,337,4.0,9.0,79,0.00,,,0.00,Weather View 32 v70,2013-11-27 04:35:00,
2013-11-26 22:40:00,13.2,7.6,30.52,NNW,337,1.0,9.0,78,0.00,,,0.00,Weather View 32 v70,2013-11-27 04:40:00,
2013-11-26 22:45:00,12.4,6.9,30.52,NE,45,2.0,9.0,78,0.00,,,0.00,Weather View 32 v70,2013-11-27 04:45:00,
2013-11-26 22:50:00,11.7,6.5,30.52,NE,45,2.0,9.0,79,0.00,,,0.00,Weather View 32 v70,2013-11-27 04:50:00,
2013-11-26 22:55:00,11.1,6.1,30.52,NE,45,2.0,9.0,80,0.00,,,0.00,Weather View 32 v70,2013-11-27 04:55:00,
2013-11-26 23:00:00,10.8,6.1,30.52,NE,45,2.0,9.0,81,0.00,,,0.00,Weather View 32 v70,2013-11-27 05:00:00,
2013-11-26 23:01:00,10.8,6.1,30.52,NE,45,1.0,9.0,81,0.00,,,0.00,Weather View 32 v70,2013-11-27 05:01:00,
2013-11-26 23:02:00,10.9,6.2,30.52,NE,45,1.0,9.0,81,0.00,,,0.00,Weather View 32 v70,2013-11-27 05:02:00,
2013-11-26 23:03:00,10.8,6.1,30.52,NE,45,3.0,9.0,81,0.00,,,0.00,Weather View 32 v70,2013-11-27 05:03:00,
2013-11-26 23:08:00,10.7,5.8,30.52,NE,45,2.0,8.0,80,0.00,,,0.00,Weather View 32 v70,2013-11-27 05:08:00,
2013-11-26 23:13:00,10.5,5.6,30.52,NNE,22,1.0,7.0,80,0.00,,,0.00,Weather View 32 v70,2013-11-27 05:13:00,
2013-11-26 23:18:00,10.3,5.9,30.53,NNE,22,0.0,6.0,82,0.00,,,0.00,Weather View 32 v70,2013-11-27 05:18:00,
2013-11-26 23:23:00,10.1,6.0,30.53,NNE,22,2.0,6.0,83,0.00,,,0.00,Weather View 32 v70,2013-11-27 05:23:00,
2013-11-26 23:28:00,10.1,6.0,30.53,NNE,22,1.0,6.0,83,0.00,,,0.00,Weather View 32 v70,2013-11-27 05:28:00,
2013-11-26 23:33:00,9.9,5.8,30.53,NNE,22,1.0,5.0,83,0.00,,,0.00,Weather View 32 v70,2013-11-27 05:33:00,
2013-11-26 23:38:00,9.9,5.8,30.53,NNE,22,2.0,4.0,83,0.00,,,0.00,Weather View 32 v70,2013-11-27 05:38:00,
2013-11-26 23:43:00,9.9,5.8,30.53,NNE,22,2.0,4.0,83,0.00,,,0.00,Weather View 32 v70,2013-11-27 05:43:00,
2013-11-26 23:48:00,9.9,5.8,30.54,NNE,22,2.0,4.0,83,0.00,,,0.00,Weather View 32 v70,2013-11-27 05:48:00,
2013-11-26 23:53:00,9.7,5.8,30.53,NNE,22,1.0,4.0,84,0.00,,,0.00,Weather View 32 v70,2013-11-27 05:53:00,
2013-11-26 23:58:00,9.8,6.2,30.53,North,360,1.0,4.0,85,0.00,,,0.00,Weather View 32 v70,2013-11-27 05:58:00,